« Back
NWS Peachtree City, Ga » Text Product » ATL Terminal Aerodrome Forecast


Printer-friendly Version
Current Version              Previous Versions:   1  2  3  4  5  6  7  8  9  

Terminal Aerodrome Forecast

348
FTUS42 KFFC 242152 AAB
TAFATL
TAF AMD
KATL 242152Z 2422/2524 13007KT P6SM SCT050 OVC100
     FM250100 11005KT P6SM FEW060 SCT150
     FM251500 09005KT P6SM SCT040
     FM251700 07004KT P6SM VCSH BKN040=

USA.gov is the U.S. government's official web portal to all federal, state and local government web resources and services.